sat.trackr.live / text

‹ back to catalog

STARLINK-4353

NORAD 53214 · 2022-084AB

PAYLOAD ACTIVE UNKNOWN

§ Identity

Operator
Country
US
Launch date
2022-07-22
Launch site
AFWTR
Launch vehicle
Mass (kg)
RCS (m²)

Purposes: comms

External: N2YO · Heavens-Above · Gunter

§ Orbital elements

Epoch: 2026-05-25T02:23:03.924672Z

Period
95.64 min
Inclination
97.4471°
Eccentricity
0.0001234
Mean motion
15.05700519 rev/d
Perigee alt
548.5 km
Apogee alt
550.2 km
Semi-major
6,927.5 km
B*
-6.2279e-4
RAAN
205.0237°
Arg perigee
110.5409°
Mean anomaly
249.5951°
Rev number
21,080

§ Raw data

STARLINK-43531 53214U 22084AB  26145.09935098 -.00009045  00000+0 -62279-3 0  99902 53214  97.4471 205.0237 0001234 110.5409 249.5951 15.05700519210807

JSON: /api/v1/satellites/53214 · /tle

For live sub-satellite position, see the globe view (requires WebGL).

§ Visibility from observer

Set your observer location to see the next 7 days of passes ≥ 10°. The values pass through the URL so the page stays shareable.

No JS? Fill the form by hand. The geolocation button needs JavaScript.